Hourly Data Report for May 26, 2012

All times are specified in Local Standard Time (LST). Add 1 hour to adjust for Daylight Saving Time where and when it is observed.

ST. JOHN'S INTL A
NEWFOUNDLAND

47°37'07.000" N
52°45'09.000" W
140.50 m
8403505
71801
YYT

Download Data

Hourly Data (May 2012)
Hourly Data Report for May 26, 2012
Temp Definition
°C
Dew Point Temp Definition
°C
Rel Hum Definition
%
Wind Dir Definition
10's deg

Wind Spd Definition
km/h
Visibility Definition
km
Stn Press Definition
kPa
Hmdx Definition


Wind Chill Definition


Weather Definition


TIME
00:30 Legend Double Dagger 8.1 0.1 57 26 40 10.0 100.21     LegendNANA
01:30 Legend Double Dagger 8.2 0.2 57 26 41 10.0 100.18     LegendNANA
02:30 Legend Double Dagger 7.8 1.0 62 26 44 10.0 100.14     Clear
03:30 Legend Double Dagger 7.3 2.0 69 26 42 10.0 100.12     LegendNANA
04:30 Legend Double Dagger 7.4 3.3 75 26 39 10.0 100.15     LegendNANA
05:30 Legend Double Dagger 8.2 4.4 77 26 44 10.0 100.10     Mostly Cloudy
06:30 Legend Double Dagger 9.0 4.4 73 27 44 10.0 100.07     LegendNANA
07:30 Legend Double Dagger 11.0 5.4 68 26 39 10.0 99.98     LegendNANA
08:30 Legend Double Dagger 12.7 6.1 64 27 48 10.0 99.92     Mostly Cloudy
09:30 Legend Double Dagger 15.2 6.6 56 26 45 10.0 99.86     LegendNANA
10:30 Legend Double Dagger 16.7 6.9 52 27 40 10.0 99.83     LegendNANA
11:30 Legend Double Dagger 17.2 7.4 52 26 41 10.0 99.78     Mainly Clear
12:30 Legend Double Dagger 17.9 7.2 49 26 40 10.0 99.66     LegendNANA
13:30 Legend Double Dagger 17.2 7.6 53 26 35 10.0 99.67     LegendNANA
14:30 Legend Double Dagger 18.5 8.3 51 26 31 10.0 99.64     Mainly Clear
15:30 Legend Double Dagger 19.1 3.8 36 25 40 10.0 99.57     LegendNANA
16:30 Legend Double Dagger 19.3 6.2 42 25 31 10.0 99.51     LegendNANA
17:30 Legend Double Dagger 18.2 6.5 46 25 30 10.0 99.49     Mainly Clear
18:30 Legend Double Dagger 15.8 6.6 54 25 33 10.0 99.45     LegendNANA
19:30 Legend Double Dagger 13.4 7.0 65 25 23 10.0 99.39     LegendNANA
20:30 Legend Double Dagger 10.3 7.9 85 25 37 10.0 99.40     Mostly Cloudy
21:30 Legend Double Dagger 9.8 8.4 91 26 36 10.0 99.31     LegendNANA
22:30 Legend Double Dagger 9.0 8.7 98 25 39 10.0 99.27     Rain Showers
23:30 Legend Double Dagger 9.3 9.0 98 27 24 10.0 99.30     Rain Showers

Notes on Data Quality.

Legend

  • E = Estimated
  • M = Missing
  • NA = Not Available
  • ‡ = Partner data that is not subject to review by the National Climate Archives
Date modified: